sat.trackr.live / text

‹ back to catalog

STARLINK-35868

NORAD 66579 · 2025-268Y

PAYLOAD ACTIVE UNKNOWN

§ Identity

Operator
Country
US
Launch date
2025-11-21
Launch site
AFETR
Launch vehicle
Mass (kg)
RCS (m²)

Purposes: comms

External: N2YO · Heavens-Above · Gunter

§ Orbital elements

Epoch: 2026-09-20T11:52:32.702016Z

Period
94.27 min
Inclination
42.9990°
Eccentricity
0.0002221
Mean motion
15.27588999 rev/d
Perigee alt
481.5 km
Apogee alt
484.5 km
Semi-major
6,861.2 km
B*
3.4822e-4
RAAN
326.8200°
Arg perigee
236.8628°
Mean anomaly
123.2010°
Rev number
4,775

§ Raw data

STARLINK-358681 66579U 25268Y   26263.49482294  .00009335  00000+0  34822-3 0  99982 66579  42.9990 326.8200 0002221 236.8628 123.2010 15.27588999 47756

JSON: /api/v1/satellites/66579 · /tle

For live sub-satellite position, see the globe view (requires WebGL).

§ Visibility from observer

Set your observer location to see the next 7 days of passes ≥ 10°. The values pass through the URL so the page stays shareable.

No JS? Fill the form by hand. The geolocation button needs JavaScript.